This demonstration page uses our WeatherBlox Daily Observations layout. Learn more.

Left ArrowRight Arrow

34.16533, -84.80231

Hourly Observations for August 9, 2017

Temp ( °F °C ) Dew Point ( °F °C ) Humidity (%) Winds ( mph kmh ) Pressure ( in mb ) Visibility ( mi km ) Precip ( " mm )
12:53 am 00:53 Mostly Cloudy 72 22.2 72 22.2 100 100 Calm 30.04 1017 9 14 0.00 0.00
1:53 am 01:53 Cloudy 72 22.2 72 22.2 100 100 Calm 30.04 1017 10 16 0.00 0.00
2:44 am 02:44 Mostly Cloudy 73 22.8 73 22.8 100 100 Calm 30.06 1018 10 16 0.00 0.00
2:53 am 02:53 Cloudy 73 22.8 73 22.8 100 100 Calm 30.04 1017 10 16 0.00 0.00
3:01 am 03:01 Cloudy 73 22.8 73 22.8 100 100 Calm 30.06 1018 10 16 0.00 0.00
3:31 am 03:31 Mostly Cloudy 72 22.2 72 22.2 100 100 Calm 30.06 1018 10 16 0.00 0.00
3:53 am 03:53 Mostly Cloudy 72 22.2 72 22.2 100 100 Calm 30.05 1018 10 16 0.00 0.00
4:01 am 04:01 Mostly Cloudy 72 22.2 72 22.2 100 100 VRB 3 6 30.06 1018 10 16 0.00 0.00
4:46 am 04:46 Cloudy 71 21.7 71 21.7 100 100 VRB 3 6 30.06 1018 10 16 0.01 0.25
4:53 am 04:53 Cloudy 72 22.2 72 22.2 100 100 Calm 30.06 1018 10 16 0.01 0.25
5:00 am 05:00 Cloudy 72 22.2 72 22.2 100 100 Calm 30.06 1018 10 16 0.00 0.00
5:10 am 05:10 Cloudy 72 22.2 72 22.2 100 100 Calm 30.06 1018 10 16 0.00 0.00
5:44 am 05:44 Cloudy 71 21.7 71 21.7 100 100 Calm 30.09 1019 10 16 0.00 0.00
5:53 am 05:53 Cloudy 72 22.2 71 21.7 97 97 Calm 30.07 1018 10 16 0.00 0.00
6:53 am 06:53 Cloudy 71 21.7 71 21.7 100 100 Calm 30.08 1019 10 16 0.00 0.00
7:21 am 07:21 Cloudy 71 21.7 71 21.7 100 100 Calm 30.09 1019 10 16 0.00 0.00
7:53 am 07:53 Cloudy 72 22.2 72 22.2 100 100 Calm 30.09 1019 10 16 0.00 0.00
8:53 am 08:53 Cloudy 72 22.2 72 22.2 100 100 VRB 5 7 30.11 1020 10 16 0.00 0.00
9:53 am 09:53 Cloudy 74 23.3 71 21.7 91 91 E 7 11 30.12 1020 10 16 0.00 0.00
10:08 am 10:08 Cloudy 74 23.3 71 21.7 91 91 ESE 5 7 30.12 1020 10 16 0.00 0.00
10:53 am 10:53 Cloudy 74 23.3 71 21.7 91 91 ESE 7 11 30.13 1020 10 16 0.00 0.00
11:42 am 11:42 Cloudy 75 23.9 71 21.7 88 88 ESE 6 9 30.15 1021 10 16 0.00 0.00
11:53 am 11:53 Cloudy 75 23.9 71 21.7 88 88 ESE 7 11 30.14 1021 10 16 0.00 0.00
12:12 pm 12:12 Cloudy 76 24.4 71 21.7 85 85 E 6 9 30.15 1021 10 16 0.00 0.00
12:53 pm 12:53 Cloudy with Light Rain 73 22.8 71 21.7 94 94 VRB 7 11 30.15 1021 5 8 0.00 0.03
1:17 pm 13:17 Cloudy with Light Rain 73 22.8 72 22.2 96 96 ENE 7 11 30.15 1021 5 8 0.01 0.25
1:38 pm 13:38 Cloudy 74 23.3 71 21.7 91 91 VRB 5 7 30.15 1021 10 16 0.01 0.25
1:53 pm 13:53 Cloudy 75 23.9 72 22.2 90 90 VRB 6 9 30.13 1020 10 16 0.01 0.25
2:00 pm 14:00 Cloudy 75 23.9 72 22.2 90 90 VRB 6 9 30.12 1020 10 16 0.00 0.00
2:53 pm 14:53 Cloudy 78 25.6 71 21.7 79 79 E 7 11 30.11 1020 10 16 0.00 0.00
3:53 pm 15:53 Mostly Cloudy 79 26.1 71 21.7 77 77 E 7 11 30.09 1019 10 16 0.00 0.00
4:53 pm 16:53 Cloudy 77 25 71 21.7 82 82 E 7 11 30.09 1019 10 16 0.00 0.00
5:53 pm 17:53 Mostly Sunny 78 25.6 72 22.2 82 82 VRB 5 7 30.09 1019 10 16 0.00 0.00
6:53 pm 18:53 Cloudy 77 25 71 21.7 82 82 VRB 6 9 30.09 1019 10 16 0.00 0.00
7:53 pm 19:53 Cloudy 76 24.4 71 21.7 85 85 E 5 7 30.11 1020 10 16 0.00 0.00
8:53 pm 20:53 Cloudy 74 23.3 71 21.7 91 91 VRB 5 7 30.12 1020 10 16 0.00 0.00
9:53 pm 21:53 Cloudy 74 23.3 70 21.1 88 88 VRB 3 6 30.14 1021 10 16 0.00 0.00
10:53 pm 22:53 Cloudy 73 22.8 70 21.1 90 90 ESE 6 9 30.15 1021 10 16 0.00 0.00
11:53 pm 23:53 Cloudy 72 22.2 71 21.7 97 97 VRB 3 6 30.16 1021 10 16 0.00 0.00

Powered by AerisWeather